Terug naar catalogus

KUIPER-00134

ActiefCommunicatieVLEO
NORAD 65960·PAYLOAD·🇺🇸 United States

Gelanceerd Oct 14, 2025 vanaf Cape Canaveral Space Force Station

Loading…

Volgende Passages (komende 24 uur)

TLE

VersSource: CelesTrak SupGP

Epoch: Sep 14, 2026, 18:08 UTC

1 65960C 25228P   26257.75561343 -.00001681  00000+0 -44385-4 0  2573
2 65960  51.8695 122.4419 0003822 250.4231 156.8238 15.37850970    16

Volg KUIPER-00134 in realtime met AllMySat

Download on the App Store